Location: Unspecified
(52.4292°N, 19.3359°E)
Time: 23:29:28
(UTC+02:00)

Altair - Pass Details

Date: 26 May 2024
Orbit: 1502 x 1682 km, 47.2° (Epoch: 19 June)

Event Time Altitude Azimuth Distance (km) Brightness Sun altitude
Rises 10:33:51 0° 234° (SW) 4,804 10.0 50.5°
Reaches altitude 10° 10:37:00 10° 229° (SW) 3,844 9.7 50.9°
Maximum altitude 10:46:26 53° 157° (SSE) 1,974 10.2 51.9°
Drops below altitude 10° 10:56:07 10° 85° (E) 3,945 10.1 53.0°
Sets 10:59:23 0° 81° (E) 4,938 10.4 53.3°
